Date,TemperatureHighF,TemperatureAvgF,TemperatureLowF,DewpointHighF,DewpointAvgF,DewpointLowF,HumidityHigh,HumidityAvg,HumidityLow,PressureMaxIn,PressureMinIn,WindSpeedMaxMPH,WindSpeedAvgMPH,GustSpeedMaxMPH,PrecipitationSumIn
2013-6-1,69.4,62.6,57.6,63.0,59.5,56.0,97,90,77,30.04,29.95,5,0,10,0.08
2013-6-2,64.1,60.8,58.1,63.2,59.9,57.3,97,97,95,29.98,29.83,2,0,10,1.44
2013-6-3,73.9,62.8,57.1,61.4,57.6,54.0,97,85,54,29.89,29.81,3,0,11,0.01
2013-6-4,73.8,62.9,55.9,63.5,57.6,50.8,96,84,61,30.00,29.88,2,0,6,0.00
2013-6-5,73.9,62.6,56.3,65.8,60.4,55.5,97,93,71,29.98,29.86,2,0,6,0.21
2013-6-6,65.4,60.1,55.5,63.5,59.0,54.7,97,96,92,29.89,29.72,4,0,7,0.63
2013-6-7,74.9,62.5,58.0,64.7,59.6,56.9,98,91,59,29.75,29.60,6,0,9,0.26
2013-6-8,72.1,61.3,54.1,64.5,58.9,53.3,97,92,63,30.04,29.75,2,0,8,0.02
2013-6-9,70.4,62.2,59.1,66.0,60.6,58.0,97,95,82,30.07,29.94,3,0,9,2.08
2013-6-10,69.3,61.3,55.6,62.0,58.6,54.8,98,91,67,29.95,29.86,3,0,13,1.89
2013-6-11,77.1,65.3,57.8,61.7,58.6,55.1,97,81,51,29.96,29.87,5,1,11,0.18
2013-6-12,83.3,69.6,61.4,69.0,62.7,57.6,92,80,54,29.97,29.85,6,1,12,0.00
2013-6-13,82.0,66.5,58.4,66.0,61.2,57.3,97,84,53,29.86,29.64,6,1,15,0.32
2013-6-14,74.3,61.5,51.3,57.7,51.6,47.0,96,72,41,29.99,29.72,5,1,11,0.00
2013-6-15,75.3,62.0,52.8,63.3,54.5,46.0,88,77,60,30.07,29.98,4,0,9,0.00
2013-6-16,76.0,64.6,57.4,64.8,58.8,53.0,95,82,66,30.07,29.97,2,0,6,0.00
2013-6-17,73.2,63.5,58.8,68.2,59.2,-99.9,97,91,75,29.97,29.87,2,-3,8,0.71
2013-6-18,70.0,63.0,59.2,65.6,61.2,58.3,97,94,82,29.87,29.74,2,0,9,0.02
2013-6-19,70.7,62.5,56.0,64.1,59.1,54.8,97,89,76,30.05,29.83,0,0,5,0.00
2013-6-20,70.3,62.0,57.2,63.8,59.5,56.0,97,92,77,30.16,30.03,2,0,7,0.00
2013-6-21,75.4,63.5,57.6,65.0,59.2,56.0,97,87,62,30.19,30.10,1,0,6,0.00
2013-6-22,78.0,63.6,56.3,64.1,58.0,54.9,97,83,55,30.16,30.05,4,0,6,0.00
2013-6-23,73.6,64.4,57.9,66.3,61.0,56.0,97,89,75,30.13,30.05,2,0,6,0.46
2013-6-24,71.9,64.7,60.7,67.7,62.9,59.9,97,94,80,30.14,30.03,3,0,8,0.25
2013-6-25,75.8,64.7,60.0,68.0,62.1,58.5,97,92,73,30.09,29.97,4,0,10,0.08
2013-6-26,80.2,66.3,60.7,68.2,63.0,59.8,97,90,63,29.98,29.85,4,0,9,0.03
2013-6-27,77.0,67.1,59.8,69.0,63.8,58.8,97,90,71,29.89,29.70,6,0,9,0.23
2013-6-28,79.9,67.7,61.1,66.8,62.0,58.6,97,83,55,29.75,29.57,7,1,15,0.01
2013-6-29,79.8,66.1,58.1,62.9,57.5,54.2,95,76,42,29.64,29.54,2,0,10,0.00
2013-6-30,71.7,63.2,56.9,63.4,58.0,52.2,97,84,61,29.74,29.61,1,0,7,0.87